www.pogodaiklimat.ru
ПОГОДА в Крижевцах
Время
(UTC), дата
07 29.11
08 29.11
09 29.11
10 29.11
11 29.11
12 29.11
13 29.11
14 29.11
15 29.11
16 29.11
17 29.11
18 29.11
19 29.11
20 29.11
21 29.11
00 30.11
03 30.11
04 30.11
05 30.11
06 30.11
07 30.11
08 30.11
09 30.11
10 30.11
11 30.11
12 30.11
13 30.11
14 30.11
15 30.11
16 30.11
17 30.11
18 30.11
19 30.11
20 30.11
21 30.11
00 1.12
03 1.12
04 1.12
05 1.12
06 1.12
07 1.12
08 1.12
09 1.12
10 1.12
11 1.12
12 1.12
13 1.12
14 1.12
15 1.12
16 1.12
17 1.12
18 1.12
19 1.12
20 1.12
21 1.12
00 2.12
03 2.12
04 2.12
05 2.12
06 2.12
07 2.12
08 2.12
09 2.12
10 2.12
11 2.12
12 2.12
13 2.12
14 2.12
15 2.12
16 2.12
17 2.12
18 2.12
19 2.12
20 2.12
21 2.12
00 3.12
03 3.12
04 3.12
05 3.12
06 3.12
07 3.12
08 3.12
09 3.12
10 3.12
11 3.12
12 3.12
13 3.12
14 3.12
15 3.12
16 3.12
17 3.12
18 3.12
19 3.12
20 3.12
21 3.12
00 4.12
03 4.12
04 4.12
05 4.12
06 4.12
07 4.12
08 4.12
09 4.12
10 4.12
11 4.12
12 4.12
13 4.12
14 4.12
15 4.12
16 4.12
17 4.12
18 4.12
19 4.12
20 4.12
21 4.12
00 5.12
03 5.12
04 5.12
05 5.12
06 5.12
07 5.12
08 5.12
09 5.12
10 5.12
11 5.12
12 5.12
13 5.12
14 5.12
15 5.12
16 5.12
17 5.12
18 5.12
19 5.12
20 5.12
21 5.12
00 6.12
03 6.12
04 6.12
05 6.12
Ветер
(напр.,м/с)
Видим. Явления Облачность Т
(С)
Тd
(С)
f
(%)
Тe
(С)
Тes
(С)
Комфортность P
(гПа)
Po
(гПа)
Тmin
(С)
Tmax
(С)
R
(мм)
R24
(мм)
S
(см)
С 1 <100 м туман ?/? +6.1 +6.1 100 +5 +5 тепло 1007.9 990.2
ЮЗ 1 <100 м туман ?/? +7.3 +7.3 100 +6 +6 тепло 1008.2 990.6
Ю 1 100 м туман ?/? +7.9 +7.9 100 +7 +7 тепло 1008.9 991.3
З 1 1500 м в посл. час туман 10/10 300 м
[St]
+8.7 +8.7 100 +8 +8 тепло 1009.0 991.4
Ю 2 15 км {туман} 4/3 600 м
[St Ci fib]
+10.5 +9.7 95 +9 +11 тепло 1008.6 991.2
ЮЗ 2 15 км {туман} 3/0
[Ac trans Ci fib]
+13.6 +9.7 77 +13 +15 тепло 1008.3 991.0
ЮЗ 2 15 км {туман} 3/1 1000 м
[Cu hum Ci fib]
+14.1 +9.8 75 +14 +15 тепло 1008.0 990.8
З 3 н/о н/о +14.5 +7.4 62 +14 +14 тепло 1007.1 988.6
З 2 н/о н/о +12.7 +6.4 65 +12 +12 тепло 1007.4 988.8
ЮЗ 1 н/о н/о +11.6 +6.0 68 +12 +12 тепло 1007.9 989.2
Ю 2 н/о н/о +11.0 +6.0 71 +10 +10 тепло 1008.2 989.5
С 1 10 км 10/10 1000 м
[Sc]
+8.9 +6.1 83 +8 +8 тепло 1009.4 991.8 +14.7
В 1 10 км 10/10 1000 м
[Sc]
+7.9 +6.3 90 +7 +7 тепло 1010.3 992.6
Ю 1 10 км 10/10 600 м
[Sc]
+7.7 +6.1 90 +7 +7 тепло 1010.9 993.2
С 1 н/о н/о +8.1 +6.5 90 +7 +7 тепло 1010.5 991.6
СВ 5 н/о н/о +9.6 +7.3 86 +6 +6 тепло 1012.7 993.8
С 2 н/о н/о +5.1 -0.7 66 +3 +3 по сезону 1016.6 997.3
СВ 3 н/о н/о +4.9 -1.7 62 +2 +2 по сезону 1017.4 998.1
С 4 н/о н/о +5.0 -2.5 58 +1 +1 по сезону 1018.4 999.1
С 2 30 км 3/1 1000 м
[Sc Ac As Ci fib]
+4.1 -2.5 62 +2 +2 по сезону 1020.0 1001.9 +4.1 0.1 0.1
С 4 40 км 5/5 1000 м
[Sc Ci fib]
+5.6 -2.7 55 +2 +2 по сезону 1021.0 1003.0
В 1 40 км 4/4 1000 м
[Sc]
+7.0 -2.3 52 +7 +7 тепло 1023.3 1005.3
С 3 40 км 3/3 1000 м
[Sc]
+7.9 +0.9 61 +6 +7 тепло 1022.5 1004.6
СВ 2 40 км 3/1 1000 м
[Sc Ac trans]
+8.8 -3.6 41 +8 +10 тепло 1022.8 1005.0
СВ 4 40 км 1/1 1000 м
[Cu Sc Ac trans]
+9.0 -1.6 47 +7 +8 тепло 1023.1 1005.3
СВ 2 30 км 1/1 1000 м
[Cu Sc Ac trans]
+9.0 -2.6 44 +8 +10 тепло 1023.2 1005.4 0.1
СВ 2 30 км 3/3 1000 м
[Cu Sc Ac trans]
+9.1 -2.1 45 +8 +9 тепло 1023.4 1005.6
СВ 2 н/о н/о +7.9 -2.1 49 +6 +6 тепло 1023.2 1004.0
В 2 н/о н/о +6.6 -1.3 57 +5 +5 тепло 1023.7 1004.4
ЮЗ 1 н/о н/о +4.6 -1.1 66 +4 +4 по сезону 1024.3 1004.9
ЮВ 1 н/о н/о +3.4 -0.9 73 +2 +2 по сезону 1024.8 1005.3
СВ 1 20 км ясно +2.0 -0.5 83 0 0 по сезону 1025.8 1007.5 +9.2
СЗ 1 20 км 3/3 1000 м
[Sc]
+0.5 -0.8 91 -2 -2 по сезону 1026.3 1007.9
СВ 1 20 км 3/1 1000 м
[Sc Ac trans]
+0.7 -0.8 90 -1 -1 по сезону 1026.8 1008.4
СВ 1 н/о н/о 0.0 -1.1 92 -2 -2 по сезону 1026.4 1006.6
штиль 0 н/о н/о -1.8 -2.3 96 -3 -3 прохладно 1026.6 1006.7
З 1 н/о н/о -2.8 -3.1 98 -5 -5 холодно 1026.2 1006.2
штиль 0 н/о н/о -3.1 -3.4 98 -4 -4 прохладно 1026.4 1006.4
СВ 1 н/о н/о -2.8 -3.1 98 -5 -5 холодно 1026.1 1006.1
С 1 20 км 3/0
[Ac lent Cs]
-3.1 -3.2 99 -6 -6 холодно 1027.0 1008.3 -4.0
СЗ 1 20 км 5/0
[Ac lent Ci fib]
-2.8 -3.2 97 -5 -5 холодно 1026.7 1008.0
СЗ 1 20 км 4/0
[Ac lent Cs]
-0.9 -1.8 94 -3 -2 прохладно 1013.1 994.8
З 1 20 км 8/6 1000 м
[Sc Ci fib]
+3.5 +0.4 80 +2 +3 по сезону 1025.8 1007.6
Ю 2 20 км 9/9 1500 м
[Sc]
+4.3 -0.3 72 +2 +2 по сезону 1026.2 1008.0
Ю 1 20 км 10/10 1000 м
[Sc]
+4.7 -0.6 68 +4 +4 по сезону 1025.1 1007.0
ЮВ 1 20 км 9/9 1000 м
[Sc]
+6.7 -3.7 47 +6 +7 тепло 1024.2 1006.2
Ю 2 20 км 10/10 1000 м
[Sc]
+6.7 +1.5 69 +5 +5 тепло 1024.1 1006.1
Ю 1 н/о н/о +6.6 -0.6 60 +6 +6 тепло 1022.2 1002.9
штиль 0 н/о н/о +6.2 -0.0 64 +6 +6 тепло 1022.0 1002.7
ЮЗ 1 н/о н/о +5.8 +0.2 67 +5 +5 тепло 1021.6 1002.3
штиль 0 н/о н/о +5.5 +0.1 68 +5 +5 тепло 1021.5 1002.2
В 1 15 км слаб. дождь 10/10 1000 м
[Sc]
+5.1 +0.9 74 +4 +4 по сезону 1022.0 1003.9 +7.4 0.0
З 1 15 км в посл. час дождь 10/10 1000 м
[Sc]
+4.8 +1.4 79 +4 +4 по сезону 1021.8 1003.7
З 1 15 км слаб. дождь 10/10 1000 м
[Sc]
+4.5 +2.2 85 +3 +3 по сезону 1021.3 1003.2
Ю 1 н/о н/о +4.8 +0.6 74 +4 +4 по сезону 1020.1 1000.8
штиль 0 н/о н/о +4.6 +2.4 86 +4 +4 по сезону 1018.8 999.5
СВ 1 н/о н/о +4.3 +2.1 86 +3 +3 по сезону 1016.9 997.6
С 1 н/о н/о +4.4 +1.7 83 +3 +3 по сезону 1016.3 997.0
СВ 2 н/о н/о +4.2 +1.6 83 +1 +1 по сезону 1015.8 996.5
СВ 2 12 км слаб. дождь 10/10 1000 м
[Sc]
+3.9 +2.1 88 +1 +1 по сезону 1016.4 998.4 +3.9 0.0 0.0
СВ 3 12 км в посл. час дождь 10/10 1000 м
[Sc]
+3.4 +2.5 94 -1 -1 по сезону 1016.3 998.2
С 4 2000 м слаб. дождь 10/4 300 м
[Frnb As op]
+3.7 +3.2 97 -1 -1 по сезону 1017.1 999.1
С 6 4000 м дождь 10/4 600 м
[Frnb As op]
+3.1 +2.6 97 -3 -3 прохладно 1018.2 1000.1
С 5 3000 м дождь 10/4 600 м
[Frnb As op]
+3.2 +2.7 97 -2 -2 по сезону 1018.4 1000.3
С 6 4000 м дождь 10/4 600 м
[Frnb As op]
+3.3 +2.8 97 -3 -3 прохладно 1019.5 1001.4
СВ 4 4000 м дождь 10/4 600 м
[Frnb As op]
+1.9 +1.4 96 -3 -3 прохладно 1020.8 1002.6 14 13.8
СВ 2 5000 м слаб. дождь 10/3 600 м
[Frnb As op]
+1.7 +1.2 96 -2 -2 по сезону 1021.2 1002.9
СВ 3 н/о н/о +2.0 +1.5 96 -2 -2 по сезону 1021.7 1002.1
СВ 1 н/о н/о +2.0 +1.3 95 0 0 по сезону 1022.5 1002.9
штиль 0 н/о н/о +2.1 +1.4 95 +1 +1 по сезону 1023.2 1003.6
Ю 1 н/о н/о +2.2 +1.7 96 0 0 по сезону 1024.1 1004.5
Ю 1 3000 м дымка {дождь} 10/10 600 м
[Sc]
+1.9 +1.9 100 -0 -0 по сезону 1025.4 1007.1 +3.9 17
Ю 1 2000 м дымка {дождь} 10/10 600 м
[St]
+1.9 +1.9 100 -0 -0 по сезону 1026.2 1007.9
Ю 1 2000 м дымка 10/10 600 м
[St]
+1.7 +1.7 100 -0 -0 по сезону 1026.9 1008.5
н/о +1.8 1027.1 1007.4
н/о +1.8 1027.2 1007.5
З 2 н/о н/о +1.3 +1.2 99 -2 -2 по сезону 1027.2 1007.5
штиль 0 н/о н/о +0.5 +0.4 99 -1 -1 по сезону 1027.3 1007.5
Ю 1 н/о н/о -0.1 -0.2 99 -2 -2 по сезону 1027.3 1007.5
штиль 0 100 м туман ?/? -1.4 -1.4 100 -3 -3 прохладно 1028.3 1009.7 -1.4 0.1 17.5
штиль 0 100 м туман ?/? -2.0 -2.0 100 -3 -3 прохладно 1028.9 1010.2
штиль 0 100 м туман ?/? -1.6 -1.6 100 -3 -3 прохладно 1029.4 1010.8
Ю 1 200 м туман ?/? -0.8 -0.8 100 -3 -3 прохладно 1029.5 1010.9
ЮВ 1 400 м туман ?/? 0.0 0.0 100 -2 -2 по сезону 1029.9 1011.4
Ю 2 1000 м в посл. час туман 10/10 300 м
[St]
+1.3 +1.3 100 -2 -2 по сезону 1029.3 1010.9
Ю 1 1000 м дымка {туман} 10/10 300 м
[St]
+1.8 +1.8 100 -0 -0 по сезону 1029.1 1010.7 4.5
ЮВ 1 4000 м дымка {туман} 8/8 300 м
[St]
+3.0 +2.8 99 +1 +2 по сезону 1028.6 1010.3
Ю 2 н/о н/о +4.3 +2.6 89 +1 +1 по сезону 1027.8 1008.3
Ю 1 н/о н/о +2.9 +1.8 92 +1 +1 по сезону 1028.1 1008.5
Ю 1 н/о н/о +1.7 +1.2 96 -0 -0 по сезону 1028.6 1008.9
штиль 0 н/о н/о +1.0 +0.8 99 -0 -0 по сезону 1029.2 1009.4
ЮВ 1 600 м туман ?/? +0.2 +0.2 100 -2 -2 по сезону 1030.3 1011.8 +4.5 0.0
В 1 100 м туман ?/? -0.7 -0.7 100 -3 -3 прохладно 1030.6 1012.0
штиль 0 100 м туман ?/? -1.2 -1.2 100 -3 -3 прохладно 1030.9 1012.3
н/о н/о -1.6 -1.7 99 1030.7 1010.7
н/о н/о -2.9 -3.0 99 1030.7 1010.6
н/о н/о -2.3 -2.4 99 1030.2 1010.2
н/о н/о -2.4 -2.5 99 1030.3 1010.2
н/о н/о -2.4 -2.5 99 1030.3 1010.2
С 1 100 м туман ?/? -3.1 -3.2 99 -6 -6 холодно 1031.2 1012.4 -3.1
СЗ 1 100 м туман ?/? -3.0 -3.1 99 -6 -6 холодно 1032.3 1013.5
Ю 1 100 м туман ?/? -2.5 -2.6 99 -5 -5 холодно 1032.7 1013.9
Ю 1 100 м туман ?/? -2.1 -2.1 100 -5 -5 холодно 1032.9 1014.2
Ю 1 100 м туман ?/? -1.6 -1.6 100 -4 -4 прохладно 1033.1 1014.4
Ю 1 100 м туман ?/? -1.5 -1.7 99 -4 -4 прохладно 1032.9 1014.2
ЮЗ 1 1000 м в посл. час туман 10/10 300 м
[St]
-1.1 -1.2 99 -3 -3 прохладно 1032.7 1014.0
ЮВ 1 2000 м дымка {туман} 10/10 300 м
[St]
-1.1 -1.2 99 -3 -3 прохладно 1031.9 1013.3
н/о н/о -0.7 -1.1 97 1030.6 1010.7
н/о н/о -0.9 -1.3 97 1030.5 1010.6
н/о н/о -0.6 -1.2 96 1030.6 1010.7
н/о н/о -0.5 -1.3 94 1030.7 1010.8
С 1 5000 м дымка 8/8 1000 м
[Sc]
-1.5 -1.7 99 -4 -4 прохладно 1031.5 1012.8 -0.6
В 1 5000 м дымка 8/8 1000 м
[Sc]
-1.3 -1.5 99 -4 -4 прохладно 1032.0 1013.3
В 1 2000 м дымка 8/8 600 м
[St]
-1.3 -1.5 99 -4 -4 прохладно 1031.9 1013.2
н/о н/о -1.1 -1.5 97 1031.3 1011.3
н/о н/о -1.0 -1.6 96 1030.8 1010.8
н/о н/о -0.8 -1.3 96 1030.1 1010.2
н/о н/о -0.8 -1.3 96 1029.8 1009.9
н/о н/о -0.7 -1.1 97 1029.8 1009.9
Ю 1 2000 м дымка 10/10 300 м
[St]
-0.8 -1.3 96 -3 -3 прохладно 1030.4 1011.8 -1.3
Ю 1 2000 м дымка 10/10 300 м
[St]
-0.7 -1.2 96 -3 -3 прохладно 1030.5 1011.9
Ю 1 2000 м дымка 10/10 300 м
[St]
-0.5 -1.0 96 -3 -3 прохладно 1030.5 1011.9
Ю 1 4000 м дымка 10/10 600 м
[St]
-0.2 -1.2 93 -2 -2 по сезону 1030.8 1012.2
Ю 2 4000 м дымка 10/10 600 м
[St]
0.0 -1.0 93 -4 -4 прохладно 1030.8 1012.2
Ю 2 4000 м дымка 10/10 600 м
[St]
+0.1 -1.2 91 -4 -4 прохладно 1030.4 1011.9
ЮЗ 2 5000 м дымка 10/10 600 м
[St]
+0.3 -2.1 84 -3 -3 прохладно 1030.1 1011.6
Ю 2 5000 м дымка 10/10 600 м
[St]
+0.4 -2.0 84 -3 -3 прохладно 1029.7 1011.2
Ю 2 н/о н/о +0.5 -2.0 83 -3 -3 прохладно 1028.7 1008.9
Ю 2 н/о н/о +0.5 -2.2 82 -3 -3 прохладно 1028.6 1008.8
Ю 2 н/о н/о +0.4 -1.9 85 -3 -3 прохладно 1028.3 1008.5
Ю 2 н/о н/о +0.5 -2.0 83 -3 -3 прохладно 1028.3 1008.5
Ю 2 5000 м дымка 10/10 300 м
[St]
+0.5 -1.3 88 -3 -3 прохладно 1029.1 1010.6 +0.7
Ю 2 5000 м дымка 10/10 600 м
[St]
+0.5 -1.0 90 -3 -3 прохладно 1028.9 1010.4
Ю 3 5000 м дымка 10/10 600 м
[St]
+0.4 -1.4 88 -4 -4 прохладно 1028.8 1010.3
н/о -1.6 1027.7 1007.9
ЮЗ 3 н/о н/о 0.0 -1.4 90 -5 -5 холодно 1026.8 1007.0
Ю 3 н/о н/о -0.8 -1.0 99 -6 -6 холодно 1025.8 1006.0
н/о -0.9 1025.7 1005.9
Ю 3 н/о н/о -0.8 -0.9 99 -6 -6 холодно 1025.7 1005.9
Местоположение метеостанции Крижевцы (Хорватия): широта 46.03 долгота 16.55 высота над уровнем моря 146 м.
В архиве по умолчанию представлена погода в Крижевцах за последнюю неделю. Архивные данные за месяц целиком и за предыдущие месяцы, начиная с января 2011 года, Вы можете получить, выбрав интересующий диапазон дат из раскрывающегося списка и нажав кнопку "Найти!".
*Определитесь, кто Вы:
Внимание! Время в таблицах - всемирное. Для получения местного времени необходимо прибавить поправку, которая равна 1 ч.
Смотрите также архив погоды в соседних городах и на ближайших метеорологических станциях:
Партнеры нашего сайта:      
Пояснения к столбцам:
  • Ветер - указаны скорость ветра в м/с - средняя за 10 мин, порывы в срок и между сроками (в фигурных скобках) и направление, откуда дует ветер: С - северный,
  • СВ - северо-восточный, В - восточный, ЮВ - юго-восточный, Ю - южный, ЮЗ - юго-западный, З - западный, СЗ - северо-западный.
  • Видимость - горизонтальная дальность видимости в метрах или километрах. При видимости от 1 до 10 км при отсутствии осадков обычно наблюдается дымка, при ухудшении видимости до 1 км и менее - туман. В сухую погоду видимость может ухудшаться дымом, пылью или мглою.
  • Явления - указаны атмосферные явления, наблюдавшиеся в срок или в последний час перед сроком; фигурными скобками обозначены явления, наблюдавшиеся между сроками (за 1-3 часа до срока); квадратными скобками обозначены град или гололедные отложения с указанием их диаметра в мм.
  • Облачность - указаны через наклонную черту общая и нижняя облачность в баллах и высота нижней границы облаков в метрах; квадратными скобками обозначены формы облаков: Ci - перистые, Cs - перисто-слоистые, Cc - перисто-кучевые, Ac - высококучевые, As - высокослоистые, Sc - слоисто-кучевые, Ns - слоисто-дождевые, Cu - кучевые, Cb - кучево-дождевые. Подробнее классификацию облаков см. в Атласе облаков (PDF).
  • T - Температура воздуха - температура, измеренная на высоте 2 м над землей.
  • Td - Температура точки росы - температура, при понижении до которой содержащийся в воздухе водяной пар достигнет насыщения.
  • f - Относительная влажность воздуха - влажноcть воздуха, измеренная на высоте 2 м над землей.
  • Te - Эффективная температура - температура, которую ощущает одетый по сезону человек в тени. Характеристика душности погоды. При расчете учитывается влияние влажности воздуха и скорости ветра на теплоощущения человека.
  • Tes - Эффективная температура на солнце - температура, которую ощущает человек, с поправкой на солнечный нагрев. Характеристика знойности погоды. Зависит от высоты солнца над горизонтом, облачности и скорости ветра. Ночью, в пасмурную погоду, а также при ветре 12 м/с и более поправка равна нулю.
  • P - Атмосферное давление - приведенное к уровню моря атмосферное давление.
  • Po - Атмосферное давление - измеренное на уровне метеостанции атмосферное давление.
  • Tmin - Минимальная температура - минимум температуры воздуха на высоте 2 м над землей.
  • Tmax - Максимальная температура - максимум температуры воздуха на высоте 2 м над землей.
  • R - Количество осадков - Количество выпавших осадков за период времени, мм. При наведении курсора мыши на число - период времени, за который выпало указанное количество осадков.
  • R24 - Количество осадков - Количество выпавших осадков за 24 часа, мм.
  • S - Снежный покров - Высота снежного покрова, см. При наведении курсора мыши на число - состояние снежного покрова и степень покрытия местности в баллах.